AirNav   Get $300 off a Bose A20 Aviation Headset
 
 494 users online  

2K6 Elk County Airport
Moline, Kansas, USA

GOING TO MOLINE?


FAA INFORMATION EFFECTIVE 12 SEPTEMBER 2019

Location

FAA Identifier: 2K6
Lat/Long: 37-22-51.3000N 096-16-16.0000W
37-22.855000N 096-16.266667W
37.3809167,-96.2711111
(estimated)
Elevation: 1063 ft. / 324 m (estimated)
Variation: 06E (1985)
From city: 3 miles NE of MOLINE, KS
Time zone: UTC -5 (UTC -6 during Standard Time)
Zip code: 67345

Airport Operations

Airport use: Open to the public
Activation date: 12/1946
Control tower: no
ARTCC: KANSAS CITY CENTER
FSS: WICHITA FLIGHT SERVICE STATION
NOTAMs facility: ICT (NOTAM-D service available)
Attendance: UNATNDD
Wind indicator: yes
Segmented circle: no

Airport Communications

CTAF: 122.9

Nearby radio navigation aids

VOR radial/distance  VOR name  Freq  Var
BVOr332/35.0BARTLESVILLE VOR/DME117.9008E
CNUr240/35.5CHANUTE VOR/DME109.2005E

 
NDB name  Hdg/Dist  Freq  Var  ID
COFFEYVILLE292/37.621205ECFV -.-. ..-. ...-

Airport Services

Airframe service: NONE
Powerplant service: NONE
Bottled oxygen: NONE
Bulk oxygen: NONE

Runway Information

Runway 18/36

Dimensions: 2510 x 40 ft. / 765 x 12 m
Surface: asphalt, in good condition
Gradient: N.
Operational restrictions: RWY 18/36 HAS CENTERLINE MARKING ONLY
RUNWAY 18  RUNWAY 36
Latitude: 37-23.062255N37-22.649157N
Longitude: 096-16.251918W096-16.279925W
Elevation: 1063.0 ft.1053.0 ft.
Traffic pattern: leftleft
Runway heading: 177 magnetic, 183 true357 magnetic, 003 true
Markings: NSTD, in good conditionNSTD, in good condition
Obstructions: 41 ft. tree, 1560 ft. from runway, 26 ft. right of centerline, 33:1 slope to clear
OVERGROWN GRASS WATERWAY 20 FT FM RY END. SMALL TREE 25 FT TALL, 115 FT RIGHT OF RWY.
32 ft. pole, 260 ft. from runway, 75 ft. right of centerline, 1:1 slope to clear
+15 FT ROAD AT THLD.

Airport Ownership and Management from official FAA records

Ownership: Publicly-owned
Owner: ELK COUNTY
COURTHOUSE
HOWARD, KS 67349
Phone 620-374-2490
Manager: BYRDEE MILLER
POST OFFICE BOX 623
HOWARD, KS 67349
Phone 620-374-3597

Airport Operational Statistics

Aircraft based on the field: 2
Single engine airplanes: 2
    
Aircraft operations: 10/year *
100% local general aviation
* for 12-month period ending 09 May 2017

Additional Remarks

WILDLIFE ON & INVOF ARPT.
FOR CD CTC KANSAS CITY ARTCC AT 913-254-8508.

Instrument Procedures

There are no published instrument procedures at 2K6.

Some nearby airports with instrument procedures:

KIDP - Independence Municipal Airport (27 nm SE)
13K - Lt. William M. Milliken Airport (28 nm N)
2K7 - Neodesha Municipal Airport (30 nm E)
KEQA - El Dorado/Captain Jack Thomas Memorial Airport (35 nm NW)
KPPF - Tri-City Airport (37 nm E)
 
Loc | Ops | Rwys | IFR | FBO | Links
Com | Nav | Svcs | Stats | Notes

Kansas City Aviation Department
 
Area around 2K6 (Elk County Airport)
 
Road maps at: MapQuest Bing Google
 
Aerial photo
WARNING: Photo may not be current or correct
Aerial photo of 2K6 (Elk County Airport)
Photo by Eve Cascella
Photo taken 22-Sep-2013
looking north.

Do you have a better or more recent aerial photo of Elk County Airport that you would like to share? If so, please send us your photo.

 
Sectional chart

 
Airport distance calculator
Flying to Elk County Airport? Find the distance to fly.

From to 2K6

Sunrise and sunset
Times for 18-Sep-2019
 Local
(UTC-5)
 Zulu
(UTC)
Morning civil twilight06:4411:44
Sunrise07:1112:11
Sunset19:2800:28
Evening civil twilight19:5400:54

Current date and time
Zulu (UTC)  18-Sep-2019 10:49:38
Local (UTC-5)  18-Sep-2019 05:49:38
 
METAR
KIDP 
27nm SE 
181035Z AUTO 16003KT 10SM CLR 21/20 A2997 RMK AO2 T02100198
KEQA 
35nm NW 
181035Z AUTO 16006KT 10SM CLR 22/20 A2996 RMK AO2
KPPF 
37nm E 
180952Z AUTO 00000KT 10SM CLR 21/20 A2998 RMK AO2 SLP140 T02110200
KCFV 
38nm SE 
180952Z AUTO 15004KT 10SM CLR 22/19 A2995 RMK AO2 SLP135 T02170194
KWLD 
39nm W 
180954Z AUTO 16003KT 10SM CLR 22/20 A2996 RMK AO2 SLP133 T02220200
KBVO 
39nm S 
181039Z AUTO 00000KT 3SM BR CLR 19/19 A2997 RMK AO2 T01940189
KCNU 
41nm NE 
180952Z AUTO 14006KT 10SM CLR 23/19 A2997 RMK AO2 SLP136 T02280194
K3AU 
42nm NW 
181035Z AUTO 15005KT 10SM CLR 20/20 A2996 RMK AO2
K1K1 
46nm NW 
181035Z AUTO 18009KT 10SM CLR 21/20 A2996 RMK AO2 T02100195
KBEC 
49nm NW 
181035Z AUTO 16005KT 10SM CLR 21/19 A2995 RMK AO2 T02100193
TAF
KBVO 
39nm S 
180520Z 1806/1906 00000KT P6SM SKC FM181600 17008KT P6SM SCT050 FM190100 00000KT P6SM SKC
KCNU 
41nm NE 
180522Z 1806/1906 15004KT P6SM SKC FM181400 18010KT P6SM FEW050 FM190000 15006KT P6SM SKC
NOTAMs
Click for the latest NOTAMs
NOTAMs are issued by the DoD/FAA and will open in a separate window not controlled by AirNav.

 

 
 

Would you like to see your business listed on this page?

 If your business provides an interesting product or service to pilots, flight crews, aircraft, or users of the Elk County Airport, you should consider listing it here.  To start the listing process, click on the button below
 
Add a business
 

Other Pages about Elk County Airport

Update a link
 
Copyright © AirNav, LLC. All rights reserved. Privacy Policy  Contact